User: anonymous   Login
Location: Unspecified
(0.0000°N, 0.0000°E)
Time: 23:43:13
(UTC+00:00)
Language:

D STAR ONE (EXOCONNECT) - Orbit

View from above orbital plane
View from above orbital plane
View from above satellite
View from above satellite

Ground track
Ground track

The orbit data is extracted from the following two-line orbital elements,

1 44410U 19038AA  21207.44014330  .00002682  00000-0  14919-3 0  9990
2 44410  97.5868 171.8136 0021367 173.0071 187.1463 15.14356214113695
Epoch (UTC): 26 July 2021 10:33:48
Eccentricity: 0.0021367
inclination: 97.5868°
perigee height: 508 km
apogee height: 537 km
right ascension of ascending node: 171.8136°
argument of perigee: 173.0071°
revolutions per day: 15.14356214
mean anomaly at epoch: 187.1463°
orbit number at epoch: 11369

The dashed part of the orbit path shows where the satellite is in the earth's shadow,  

DLR